Location: Morisset
(33.1080°S, 151.4871°E)
Time: 08:26:06
(UTC+00:00)

Okean 1-7 Rocket - Pass Details

Date: 29 October 2020
Orbit: 615 x 650 km, 82.5° (Epoch: 27 November)

Event Time Altitude Azimuth Distance (km) Brightness Sun altitude
Rises 18:22:45 0° 193° (SSW) 2,989 7.2 -7.5°
Reaches altitude 10° 18:25:04 10° 197° (SSW) 2,075 6.3 -7.1°
Maximum altitude 18:29:32 52° 272° (W) 820 3.9 -6.2°
Drops below altitude 10° 18:33:58 10° 348° (NNW) 2,055 5.9 -5.4°
Sets 18:36:15 0° 353° (N) 2,957 6.8 -4.9°
